This is the latest recevied weather packets stored in our database for station/object KM4CNW. If no packets are shown the sender has not sent any weather packets the latest 10 day(s).
| Time | Temp. | Humidity | Pressure | Rain* | Wind** | Luminosity | Snow |
|---|---|---|---|---|---|---|---|
| 1777838536 | 20.56° C | 23% | 1011.3 hPa | 0 mm | - | 703 W/m² | - |
| 1777838233 | 20.56° C | 27% | 1011.5 hPa | 0 mm | - | 715 W/m² | - |
| 1777837930 | 20° C | 26% | 1011.4 hPa | 0 mm | - | 729 W/m² | - |
| 1777837627 | 20° C | 25% | 1011.4 hPa | 0 mm | - | 743 W/m² | - |
| 1777837323 | 20° C | 25% | 1011.5 hPa | 0 mm | - | 754 W/m² | - |
| 1777837020 | 20° C | 25% | 1011.7 hPa | 0 mm | - | 765 W/m² | - |
| 1777836715 | 19.44° C | 28% | 1011.6 hPa | 0 mm | - | 777 W/m² | - |
| 1777836411 | 20° C | 25% | 1011.7 hPa | 0 mm | - | 790 W/m² | - |
| 1777836107 | 20° C | 28% | 1011.8 hPa | 0 mm | - | 801 W/m² | - |
| 1777835803 | 19.44° C | 25% | 1011.7 hPa | 0 mm | - | 813 W/m² | - |
| 1777835501 | 20° C | 26% | 1012 hPa | 0 mm | - | 825 W/m² | - |
| 1777835198 | 20° C | 25% | 1012.2 hPa | 0 mm | - | 833 W/m² | - |
| 1777834895 | 19.44° C | 29% | 1012 hPa | 0 mm | - | 843 W/m² | - |
| 1777834591 | 19.44° C | 27% | 1012.2 hPa | 0 mm | - | 852 W/m² | - |
| 1777834286 | 20° C | 27% | 1012 hPa | 0 mm | - | 861 W/m² | - |
| 1777833982 | 19.44° C | 26% | 1012.2 hPa | 0 mm | - | 869 W/m² | - |
| 1777833678 | 18.89° C | 26% | 1012.6 hPa | 0 mm | - | 878 W/m² | - |
| 1777833375 | 19.44° C | 26% | 1012.3 hPa | 0 mm | - | 885 W/m² | - |
| 1777833072 | 18.89° C | 30% | 1012.3 hPa | 0 mm | - | 891 W/m² | - |
| 1777832771 | 18.89° C | 30% | 1012.6 hPa | 0 mm | - | 897 W/m² | - |
| 1777832469 | 18.33° C | 29% | 1012.6 hPa | 0 mm | - | 902 W/m² | - |
| 1777832165 | 18.33° C | 27% | 1012.9 hPa | 0 mm | - | 908 W/m² | - |
| 1777831862 | 18.89° C | 31% | 1012.8 hPa | 0 mm | - | 912 W/m² | - |
| 1777831559 | 17.78° C | 34% | 1012.8 hPa | 0 mm | - | 916 W/m² | - |
| 1777831256 | 17.78° C | 29% | 1012.9 hPa | 0 mm | - | 920 W/m² | - |
* Rain latest hour (hover to see other rain measurements)
** Current wind speed in m/s (hover to see current wind gust speed)